Location: Albany
(35.0000°S, 118.0000°E)
Time: 08:20:01
(UTC-04:00)

ADEOS Rocket - Visible Passes

Search period start: 24 September 2017 00:00
Search period end: 04 October 2017 00:00
Orbit: 858 x 1307 km, 98.8° (Epoch: 23 September)

Date Brightness Start Highest point End Pass type
(mag) Time Alt. Az. Time Alt. Az. Time Alt. Az.
24 Sep 5.8 11:32:19 15° SSE 11:32:19 15° SSE 11:33:38 10° S visible
24 Sep 5.8 13:19:16 13° SSW 13:19:16 13° SSW 13:20:00 10° SSW visible
25 Sep 5.7 12:29:36 18° S 12:29:36 18° S 12:31:09 10° S visible
26 Sep 5.7 11:39:54 16° SSE 11:39:54 16° SSE 11:41:31 10° S visible
26 Sep 5.8 13:26:51 13° SSW 13:26:51 13° SSW 13:27:35 10° SSW visible
27 Sep 5.9 10:50:13 10° SSE 10:50:13 10° SSE 10:50:23 10° SSE visible
27 Sep 5.6 12:37:10 18° S 12:37:10 18° S 12:38:51 10° S visible
28 Sep 5.6 11:47:29 18° SSE 11:47:29 18° SSE 11:49:21 10° S visible
28 Sep 5.7 13:34:26 13° SSW 13:34:26 13° SSW 13:35:07 10° SSW visible
29 Sep 5.8 10:57:48 12° SSE 10:57:48 12° SSE 10:58:38 10° SSE visible
29 Sep 5.5 12:44:45 19° S 12:44:45 19° S 12:46:31 10° SSW visible
30 Sep 5.5 11:55:04 19° SSE 11:55:04 19° SSE 11:57:09 10° S visible
30 Sep 5.7 13:42:01 12° SSW 13:42:01 12° SSW 13:42:36 10° SSW visible
01 Oct 5.7 11:05:23 14° SSE 11:05:23 14° SSE 11:06:44 10° SSE visible
01 Oct 5.5 12:52:20 19° SSW 12:52:20 19° SSW 12:54:09 10° SSW visible
02 Oct 5.4 12:02:39 21° S 12:02:39 21° S 12:04:55 10° S visible
02 Oct 5.7 13:49:36 12° SW 13:49:36 12° SW 13:50:02 10° SSW visible
03 Oct 5.7 11:12:59 15° SSE 11:12:59 15° SSE 11:14:44 10° SSE visible
03 Oct 5.4 12:59:55 20° SSW 12:59:55 20° SSW 13:01:46 10° SSW visible
